When you browse on this site, cookies collect data to enhance your experience and personalize the content and advertising you see.
Visit our Privacy Policy to learn more. By continuing to use the site, you agree to this use of cookies and data.
  • In Hungary
  • List of Countries
  • For 7 days
  • Water Temperature
  • Satellite Maps
  • Weather Map
  • News
  • Weather Widgets
  • user-avatar
    Login

    Hourly Weather Zhelyabovka

    Today, 18 July, Thursday

    Time Temperature Precipitation Wind Pressure Humidity
    00:00 +21°C° 0 mm 1 mps 753 mmHg 64%
    01:00 +21°C° 0 mm 1 mps 753 mmHg 65%
    02:00 +19°C° 0 mm 2 mps 753 mmHg 68%
    03:00 +20°C° 0 mm 2 mps 753 mmHg 67%
    04:00 +20°C° 0 mm 2 mps 753 mmHg 66%
    05:00 +20°C° 0 mm 2 mps 753 mmHg 65%
    06:00 +23°C° 0 mm 2 mps 753 mmHg 57%
    07:00 +25°C° 0 mm 2 mps 753 mmHg 49%
    08:00 +28°C° 0 mm 2 mps 753 mmHg 41%
    09:00 +29°C° 0 mm 2 mps 754 mmHg 37%
    10:00 +30°C° 0 mm 3 mps 754 mmHg 33%
    11:00 +31°C° 0 mm 3 mps 754 mmHg 29%
    12:00 +31°C° 0 mm 3 mps 754 mmHg 29%
    13:00 +32°C° 0 mm 4 mps 754 mmHg 30%
    14:00 +30°C° 0 mm 4 mps 755 mmHg 30%
    15:00 +30°C° 0 mm 3 mps 755 mmHg 31%
    16:00 +30°C° 0 mm 3 mps 755 mmHg 32%
    17:00 +29°C° 0 mm 2 mps 755 mmHg 33%
    18:00 +28°C° 0 mm 2 mps 755 mmHg 36%
    19:00 +27°C° 0 mm 1 mps 755 mmHg 40%
    20:00 +26°C° 0 mm 1 mps 756 mmHg 43%
    21:00 +25°C° 0 mm 1 mps 756 mmHg 46%
    22:00 +24°C° 0 mm 2 mps 756 mmHg 48%
    23:00 +23°C° 0 mm 2 mps 757 mmHg 51%

    Tomorrow, 19 July, Friday

    Time Temperature Precipitation Wind Pressure Humidity
    00:00 +21°C° 0 mm 2 mps 757 mmHg 55%
    01:00 +21°C° 0 mm 2 mps 757 mmHg 59%
    02:00 +20°C° 0 mm 2 mps 757 mmHg 63%
    03:00 +20°C° 0 mm 2 mps 757 mmHg 65%
    04:00 +20°C° 0 mm 2 mps 758 mmHg 67%
    05:00 +20°C° 0 mm 2 mps 758 mmHg 68%
    06:00 +23°C° 0 mm 2 mps 758 mmHg 61%
    07:00 +25°C° 0 mm 2 mps 759 mmHg 55%
    08:00 +27°C° 0 mm 3 mps 759 mmHg 48%
    09:00 +28°C° 0 mm 3 mps 759 mmHg 43%
    10:00 +29°C° 0 mm 3 mps 759 mmHg 39%
    11:00 +30°C° 0 mm 3 mps 759 mmHg 35%
    12:00 +30°C° 0 mm 4 mps 759 mmHg 34%
    13:00 +30°C° 0 mm 4 mps 759 mmHg 34%
    14:00 +30°C° 0 mm 4 mps 759 mmHg 34%
    15:00 +30°C° 0 mm 3 mps 759 mmHg 33%
    16:00 +30°C° 0 mm 3 mps 759 mmHg 33%
    17:00 +29°C° 0 mm 3 mps 759 mmHg 33%
    18:00 +27°C° 0 mm 2 mps 759 mmHg 38%
    19:00 +26°C° 0 mm 2 mps 760 mmHg 43%
    20:00 +24°C° 0 mm 2 mps 760 mmHg 48%
    21:00 +23°C° 0 mm 2 mps 760 mmHg 51%
    22:00 +23°C° 0 mm 2 mps 760 mmHg 53%
    23:00 +22°C° 0 mm 1 mps 761 mmHg 56%

    Day after tomorrow, 20 July, Saturday

    Time Temperature Precipitation Wind Pressure Humidity
    00:00 +22°C° 0 mm 1 mps 761 mmHg 57%
    01:00 +21°C° 0 mm 1 mps 761 mmHg 59%
    02:00 +21°C° 0 mm 1 mps 760 mmHg 60%
    03:00 +21°C° 0 mm 1 mps 761 mmHg 60%
    04:00 +21°C° 0 mm 1 mps 761 mmHg 59%
    05:00 +21°C° 0 mm 1 mps 761 mmHg 59%
    06:00 +23°C° 0 mm 1 mps 761 mmHg 52%
    07:00 +26°C° 0 mm 1 mps 761 mmHg 45%
    08:00 +28°C° 0 mm 1 mps 761 mmHg 38%
    09:00 +29°C° 0 mm 2 mps 762 mmHg 35%
    10:00 +30°C° 0 mm 3 mps 762 mmHg 33%
    11:00 +33°C° 0 mm 4 mps 762 mmHg 31%
    12:00 +33°C° 0 mm 5 mps 762 mmHg 31%
    13:00 +33°C° 0 mm 5 mps 762 mmHg 31%
    14:00 +33°C° 0 mm 5 mps 761 mmHg 31%
    15:00 +32°C° 0 mm 4 mps 761 mmHg 32%
    16:00 +32°C° 0 mm 4 mps 761 mmHg 33%
    17:00 +30°C° 0 mm 3 mps 761 mmHg 33%
    18:00 +28°C° 0 mm 3 mps 761 mmHg 38%
    19:00 +26°C° 0 mm 2 mps 761 mmHg 43%
    20:00 +24°C° 0 mm 1 mps 761 mmHg 49%
    21:00 +24°C° 0 mm 1 mps 761 mmHg 51%
    22:00 +23°C° 0 mm 1 mps 761 mmHg 53%
    23:00 +22°C° 0 mm 1 mps 761 mmHg 56%

    21 July, Sunday

    Time Temperature Precipitation Wind Pressure Humidity
    00:00 +22°C° 0 mm 1 mps 761 mmHg 58%
    01:00 +22°C° 0 mm 1 mps 761 mmHg 60%
    02:00 +21°C° 0 mm 1 mps 761 mmHg 62%
    03:00 +21°C° 0 mm 1 mps 761 mmHg 62%
    04:00 +21°C° 0 mm 1 mps 761 mmHg 62%
    05:00 +22°C° 0 mm 1 mps 761 mmHg 62%
    06:00 +24°C° 0 mm 2 mps 761 mmHg 55%
    07:00 +27°C° 0 mm 3 mps 761 mmHg 48%
    08:00 +29°C° 0 mm 3 mps 761 mmHg 41%
    09:00 +30°C° 0 mm 4 mps 761 mmHg 37%
    10:00 +32°C° 0 mm 4 mps 761 mmHg 33%
    11:00 +33°C° 0 mm 5 mps 761 mmHg 29%
    12:00 +33°C° 0 mm 5 mps 761 mmHg 29%
    13:00 +34°C° 0 mm 5 mps 761 mmHg 28%
    14:00 +34°C° 0 mm 5 mps 760 mmHg 28%
    15:00 +33°C° 0 mm 5 mps 760 mmHg 29%
    16:00 +33°C° 0 mm 4 mps 760 mmHg 29%
    17:00 +31°C° 0 mm 3 mps 760 mmHg 30%
    18:00 +29°C° 0 mm 2 mps 760 mmHg 36%
    19:00 +27°C° 0 mm 2 mps 760 mmHg 41%
    20:00 +25°C° 0 mm 1 mps 761 mmHg 47%
    21:00 +25°C° 0 mm 1 mps 761 mmHg 47%
    22:00 +24°C° 0 mm 1 mps 761 mmHg 48%
    23:00 +24°C° 0 mm 1 mps 761 mmHg 48%

    22 July, Monday

    Time Temperature Precipitation Wind Pressure Humidity
    00:00 +23°C° 0 mm 1 mps 760 mmHg 48%
    01:00 +23°C° 0 mm 1 mps 760 mmHg 48%
    02:00 +23°C° 0 mm 1 mps 760 mmHg 48%
    03:00 +23°C° 0 mm 1 mps 760 mmHg 48%
    04:00 +23°C° 0 mm 1 mps 760 mmHg 48%
    05:00 +23°C° 0 mm 1 mps 760 mmHg 48%
    06:00 +25°C° 0 mm 1 mps 760 mmHg 43%
    07:00 +28°C° 0 mm 1 mps 760 mmHg 38%
    08:00 +30°C° 0 mm 1 mps 760 mmHg 33%
    09:00 +32°C° 0 mm 2 mps 760 mmHg 31%
    10:00 +34°C° 0 mm 2 mps 760 mmHg 29%
    11:00 +35°C° 0 mm 3 mps 760 mmHg 28%
    12:00 +35°C° 0 mm 3 mps 760 mmHg 28%
    13:00 +35°C° 0 mm 4 mps 759 mmHg 28%
    14:00 +35°C° 0 mm 4 mps 759 mmHg 29%
    15:00 +35°C° 0 mm 4 mps 759 mmHg 29%
    16:00 +34°C° 0 mm 4 mps 759 mmHg 30%
    17:00 +34°C° 0 mm 3 mps 758 mmHg 31%
    18:00 +31°C° 0 mm 3 mps 758 mmHg 37%
    19:00 +29°C° 0 mm 2 mps 758 mmHg 42%
    20:00 +27°C° 0 mm 1 mps 758 mmHg 47%
    21:00 +26°C° 0 mm 2 mps 758 mmHg 49%
    22:00 +26°C° 0 mm 2 mps 758 mmHg 50%
    23:00 +25°C° 0 mm 2 mps 758 mmHg 52%

    23 July, Tuesday

    Time Temperature Precipitation Wind Pressure Humidity
    00:00 +25°C° 0 mm 2 mps 758 mmHg 55%
    01:00 +24°C° 0 mm 3 mps 757 mmHg 58%
    02:00 +24°C° 0 mm 3 mps 757 mmHg 62%
    03:00 +24°C° 0 mm 3 mps 757 mmHg 63%
    04:00 +22°C° 0 mm 3 mps 757 mmHg 64%
    05:00 +22°C° 0 mm 3 mps 756 mmHg 65%
    06:00 +26°C° 0 mm 3 mps 756 mmHg 59%
    07:00 +28°C° 0 mm 3 mps 756 mmHg 53%
    08:00 +30°C° 0 mm 3 mps 756 mmHg 47%
    09:00 +31°C° 0 mm 3 mps 756 mmHg 44%
    10:00 +33°C° 0 mm 3 mps 756 mmHg 41%
    11:00 +34°C° 0 mm 3 mps 756 mmHg 39%
    12:00 +30°C° 3.7 mm 4 mps 756 mmHg 53%
    13:00 +27°C° 3.7 mm 6 mps 756 mmHg 67%
    14:00 +23°C° 3.7 mm 7 mps 755 mmHg 81%
    15:00 +24°C° 1.1 mm 6 mps 755 mmHg 76%
    16:00 +25°C° 1.1 mm 5 mps 755 mmHg 71%
    17:00 +25°C° 1.1 mm 4 mps 755 mmHg 66%
    18:00 +25°C° 0 mm 3 mps 755 mmHg 68%
    19:00 +25°C° 0 mm 3 mps 755 mmHg 71%
    20:00 +24°C° 0 mm 2 mps 755 mmHg 73%
    21:00 +24°C° 0 mm 2 mps 755 mmHg 74%
    22:00 +24°C° 0 mm 2 mps 755 mmHg 76%
    23:00 +22°C° 0 mm 3 mps 755 mmHg 77%
    Show more